Вернуться в каталог

SCOUT G-1 DEB

АктивенPO
NORAD 16020·DEBRIS·🇺🇸 United States

Запущен Aug 3, 1985 с Vandenberg Space Force Base

Loading…

Ближайшие Пролёты (ближайшие 24 часа)

TLE

СвежийSource: Space-Track

Эпоха: Sep 14, 2026, 07:22 UTC

1 16020U 85066F   26257.30742154  .00000060  00000-0  87052-4 0  9994
2 16020  90.2266  13.6055 0141107  51.5295 337.4984 13.41062956  7504

Отслеживайте SCOUT G-1 DEB в реальном времени с AllMySat

Download on the App Store